Cody, WY

6:55 AM MST on February 26, 2017 (GMT -0700)
Yellowstone Regional

Weather History for KCOD - December, 2012

Change the Weather History Date:

Saturday, December 1, 2012

  Actual Average Record
Temperature  
Mean Temperature 45 °F -  
Max Temperature 51 °F 38 °F 61 °F (1926)
Min Temperature 39 °F 16 °F -21 °F (1985)
Degree Days  
Heating Degree Days 20    
Moisture  
Dew Point 30 °F    
Average Humidity 53    
Maximum Humidity 81    
Minimum Humidity 40    
Precipitation  
Precipitation 0.00 in - - ()
Sea Level Pressure  
Sea Level Pressure 29.80 in    
Wind  
Wind Speed 11 mph (SW)    
Max Wind Speed 25 mph    
Max Gust Speed 40 mph    
Visibility 10 miles    
Events      
Averages and records for this station are not official NWS values.
T = Trace of Precipitation, MM = Missing Value Source: NWS Daily Summary

Daily Weather History Graph

Daily Weather History Graph

Search for Another Location

Airport or City:

Trip Planner

Search our weather history database for the weather conditions in past years. The results will help you decide how hot, cold, wet, or windy it might be!

Date:

Astronomy

Dec. 01, 2012 Rise Set
Actual Time 7:33 AM MST 4:37 PM MST
Civil Twilight 7:00 AM MST 5:10 PM MST
Nautical Twilight 6:23 AM MST 5:46 PM MST
Astronomical Twilight 5:48 AM MST 6:21 PM MST
Moon 7:32 PM MST (12/1) 9:46 AM MST (12/1)
Length of Visible Light 10h 09m
Length of Day
9h 04m
Waning Gibbous, 91% of the Moon is Illuminated
Dec 1
Waning Gibbous
Dec 6
Last Quarter
Dec 13
New
Dec 19
First Quarter
Dec 28
Full

Hourly Weather History & Observations

Time (MST) Temp. Windchill Dew Point Humidity Pressure Visibility Wind Dir Wind Speed Gust Speed Precip Events Conditions
12:15 AM 42.8 °F 37.5 °F 33.8 °F 70% 29.75 in 10.0 mi South 9.2 mph - N/A   Scattered Clouds
12:35 AM 46.4 °F 41.5 °F 33.8 °F 62% 29.75 in 10.0 mi SW 10.4 mph - N/A   Scattered Clouds
1:15 AM 46.4 °F 43.5 °F 33.8 °F 62% 29.75 in 10.0 mi NW 5.8 mph - N/A   Scattered Clouds
1:55 AM 46.4 °F 45.2 °F 33.8 °F 62% 29.75 in 10.0 mi NW 3.5 mph - N/A   Scattered Clouds
2:35 AM 44.6 °F 40.2 °F 35.6 °F 71% 29.76 in 10.0 mi South 8.1 mph - N/A   Clear
3:15 AM 42.8 °F 37.0 °F 33.8 °F 70% 29.77 in 10.0 mi SE 10.4 mph - N/A   Partly Cloudy
3:35 AM 39.2 °F 33.6 °F 33.8 °F 81% 29.77 in 10.0 mi SSE 8.1 mph - N/A   Partly Cloudy
3:55 AM 44.6 °F 40.7 °F 33.8 °F 66% 29.76 in 10.0 mi WSW 6.9 mph 18.4 mph N/A   Partly Cloudy
4:15 AM 46.4 °F 42.4 °F 32.0 °F 57% 29.77 in 10.0 mi West 8.1 mph - N/A   Clear
4:35 AM 46.4 °F 41.9 °F 30.2 °F 53% 29.78 in 10.0 mi West 9.2 mph - N/A   Clear
4:55 AM 46.4 °F 41.9 °F 30.2 °F 53% 29.78 in 10.0 mi West 9.2 mph 20.7 mph N/A   Clear
5:15 AM 46.4 °F 43.5 °F 30.2 °F 53% 29.78 in 10.0 mi West 5.8 mph - N/A   Clear
5:35 AM 44.6 °F 38.8 °F 30.2 °F 57% 29.79 in 10.0 mi WNW 11.5 mph - N/A   Clear
5:55 AM 46.4 °F 40.7 °F 28.4 °F 50% 29.79 in 10.0 mi West 12.7 mph 20.7 mph N/A   Clear
6:36 AM 46.4 °F 40.7 °F 28.4 °F 50% 29.79 in 10.0 mi WSW 12.7 mph 25.3 mph N/A   Clear
6:55 AM 46.4 °F 41.1 °F 28.4 °F 50% 29.79 in 10.0 mi West 11.5 mph 21.9 mph N/A   Clear
7:15 AM 46.4 °F 40.7 °F 30.2 °F 53% 29.81 in 10.0 mi West 12.7 mph 20.7 mph N/A   Clear
7:35 AM 46.4 °F 42.4 °F 30.2 °F 53% 29.82 in 10.0 mi WSW 8.1 mph 21.9 mph N/A   Clear
7:55 AM 46.4 °F 41.9 °F 26.6 °F 46% 29.81 in 10.0 mi West 9.2 mph 19.6 mph N/A   Clear
8:15 AM 46.4 °F 40.7 °F 24.8 °F 43% 29.81 in 10.0 mi WSW 12.7 mph 26.5 mph N/A   Clear
8:35 AM 46.4 °F 43.5 °F 26.6 °F 46% 29.82 in 10.0 mi WSW 5.8 mph - N/A   Clear
8:55 AM 48.2 °F - 26.6 °F 43% 29.82 in 10.0 mi WSW 11.5 mph 18.4 mph N/A   Clear
9:35 AM 50.0 °F - 26.6 °F 40% 29.83 in 10.0 mi WSW 13.8 mph 24.2 mph N/A   Clear
9:55 AM 50.0 °F - 26.6 °F 40% 29.83 in 10.0 mi WSW 16.1 mph 25.3 mph N/A   Clear
10:15 AM 50.0 °F - 26.6 °F 40% 29.83 in 10.0 mi WSW 13.8 mph 27.6 mph N/A   Clear
10:35 AM 51.8 °F - 28.4 °F 41% 29.85 in 10.0 mi West 10.4 mph 26.5 mph N/A   Clear
10:55 AM 51.8 °F - 28.4 °F 41% 29.84 in 10.0 mi WSW 13.8 mph 26.5 mph N/A   Clear
11:15 AM 50.0 °F - 28.4 °F 43% 29.83 in 10.0 mi WSW 21.9 mph 28.8 mph N/A   Clear
11:35 AM 50.0 °F - 28.4 °F 43% 29.82 in 10.0 mi WSW 16.1 mph 33.4 mph N/A   Clear
11:55 AM 48.2 °F - 28.4 °F 46% 29.82 in 10.0 mi West 13.8 mph 25.3 mph N/A   Partly Cloudy
12:15 PM 48.2 °F - 28.4 °F 46% 29.83 in 10.0 mi WSW 21.9 mph 31.1 mph N/A   Scattered Clouds
12:35 PM 48.2 °F - 28.4 °F 46% 29.83 in 10.0 mi WSW 20.7 mph 35.7 mph N/A   Partly Cloudy
12:55 PM 46.4 °F 38.5 °F 32.0 °F 57% 29.81 in 10.0 mi SW 21.9 mph 32.2 mph N/A   Clear
1:15 PM 46.4 °F 38.7 °F 33.8 °F 62% 29.78 in 10.0 mi WSW 20.7 mph 28.8 mph N/A   Clear
1:35 PM 46.4 °F 39.0 °F 32.0 °F 57% 29.77 in 10.0 mi WSW 19.6 mph 38.0 mph N/A   Clear
1:55 PM 48.2 °F - 30.2 °F 50% 29.77 in 10.0 mi WSW 25.3 mph 33.4 mph N/A   Clear
2:15 PM 46.4 °F 39.2 °F 33.8 °F 62% 29.79 in 10.0 mi WSW 18.4 mph 40.3 mph N/A   Clear
2:35 PM 48.2 °F - 30.2 °F 50% 29.78 in 10.0 mi WSW 21.9 mph 33.4 mph N/A   Clear
2:55 PM 48.2 °F - 32.0 °F 54% 29.77 in 10.0 mi WSW 17.3 mph 32.2 mph N/A   Clear
3:15 PM 48.2 °F - 30.2 °F 50% 29.78 in 10.0 mi West 10.4 mph 19.6 mph N/A   Clear
3:35 PM 48.2 °F - 30.2 °F 50% 29.80 in 10.0 mi WNW 5.8 mph - N/A   Clear
4:15 PM 46.4 °F 43.5 °F 30.2 °F 53% 29.80 in 10.0 mi SW 5.8 mph - N/A   Clear
4:55 PM 46.4 °F 42.4 °F 30.2 °F 53% 29.81 in 10.0 mi SSE 8.1 mph - N/A   Clear
5:15 PM 42.8 °F 35.8 °F 32.0 °F 66% 29.82 in 10.0 mi SE 13.8 mph 19.6 mph N/A   Clear
5:35 PM 44.6 °F 38.1 °F 30.2 °F 57% 29.82 in 10.0 mi East 13.8 mph - N/A   Mostly Cloudy
5:55 PM 44.6 °F 39.7 °F 30.2 °F 57% 29.82 in 10.0 mi South 9.2 mph - N/A   Overcast
6:15 PM 44.6 °F 37.8 °F 30.2 °F 57% 29.81 in 10.0 mi ESE 15.0 mph - N/A   Mostly Cloudy
6:35 PM 46.4 °F 39.8 °F 30.2 °F 53% 29.81 in 10.0 mi East 16.1 mph 24.2 mph N/A   Overcast
6:55 PM 48.2 °F - 30.2 °F 50% 29.83 in 10.0 mi NNW 4.6 mph 25.3 mph N/A   Overcast
7:15 PM 46.4 °F 40.4 °F 30.2 °F 53% 29.84 in 10.0 mi SE 13.8 mph - N/A   Overcast
7:35 PM 48.2 °F - 28.4 °F 46% 29.84 in 10.0 mi SSE 11.5 mph - N/A   Overcast
7:55 PM 48.2 °F - 28.4 °F 46% 29.83 in 10.0 mi SW 5.8 mph - N/A   Overcast
8:15 PM 46.4 °F 42.9 °F 28.4 °F 50% 29.83 in 10.0 mi West 6.9 mph - N/A   Mostly Cloudy
8:35 PM 46.4 °F 42.9 °F 28.4 °F 50% 29.82 in 10.0 mi West 6.9 mph - N/A   Clear
8:55 PM 42.8 °F 38.0 °F 28.4 °F 57% 29.81 in 10.0 mi SSE 8.1 mph - N/A   Partly Cloudy
9:15 PM 42.8 °F 37.0 °F 28.4 °F 57% 29.82 in 10.0 mi SE 10.4 mph - N/A   Mostly Cloudy
9:35 PM 44.6 °F 42.2 °F 28.4 °F 53% 29.82 in 10.0 mi SSE 4.6 mph - N/A   Overcast
9:55 PM 44.6 °F 43.1 °F 28.4 °F 53% 29.82 in 10.0 mi SW 3.5 mph - N/A   Mostly Cloudy
10:15 PM 48.2 °F - 28.4 °F 46% 29.80 in 10.0 mi WSW 10.4 mph - N/A   Partly Cloudy
10:35 PM 42.8 °F 35.8 °F 26.6 °F 53% 29.81 in 10.0 mi South 13.8 mph - N/A   Clear
10:55 PM 44.6 °F 37.8 °F 28.4 °F 53% 29.81 in 10.0 mi South 15.0 mph - N/A   Clear
11:15 PM 46.4 °F 39.5 °F 28.4 °F 50% 29.80 in 10.0 mi South 17.3 mph 23.0 mph N/A   Clear
11:35 PM 48.2 °F - 26.6 °F 43% 29.80 in 10.0 mi South 11.5 mph - N/A   Partly Cloudy
11:55 PM 46.4 °F 41.1 °F 26.6 °F 46% 29.80 in 10.0 mi SE 11.5 mph - N/A   Partly Cloudy